Terminal Aerodrome Forecast
Issued by NWS

Current Version | Previous Version | Text Only | Print | Product List | Glossary On
Versions: 1 2 3 4 5 6 7 8 9 10 11 12 13 14 15 16 17 18 19 20 21 22 23 24 25
171
FTUS41 KBUF 301725 AAB
TAFJHW
TAF AMD
KJHW 301725Z 3017/0112 09007KT P6SM OVC020
     FM302000 13007KT P6SM OVC025
     FM302300 14006KT P6SM OVC035
     FM010200 13008KT 6SM -RA OVC035
     FM010400 13011KT 6SM -RA OVC020
     FM010900 16016G26KT 6SM -RA OVC007
      AMD LTD TO CLD VIS AND WIND=

USA.gov is the U.S. government's official web portal to all federal, state and local government web resources and services.